• Join FlightAware (Why Join?)
  • Login
  • US Flag 
08:19PM EST


 

Airport Tracker/Info


-or-


 

Live Flight TrackerFlight Track Log ✈ BJS438 ✈ 02-Jul-2013 ✈ KBUR - KSLC

Flight Track Log - Related Links

Times and Time Zones

All times are in EDT time to prevent confusion due to time zone crossing. See the BJS438 flight status page for this flight to view local times or setup timezone preferences in your user account.

Time Position Orientation Groundspeed Altitude Reporting Facility
EDT Latitude Longitude Course Direction KTS MPH feet Rate Location/Type
06:49PM 34.1833 -118.3500 220° Southwest 176 203 1,800  Level Southern California TRACON
06:50PM 34.1333 -118.4000 220° Southwest 235 270 4,400 2,718 Climbing Southern California TRACON
06:51PM 34.1328 -118.4683 269° West 262 302 7,100 3,076 Climbing Los Angeles Center
06:52PM 34.2092 -118.4472 13° North 285 328 10,500 3,532 Climbing Los Angeles Center
06:53PM 34.2897 -118.4100 21° North 305 351 14,400 3,290 Climbing Los Angeles Center
06:54PM 34.3683 -118.3750 20° North 301 346 17,300 2,439 Climbing Los Angeles Center
06:55PM 34.4411 -118.3428 20° North 281 323 19,400 2,049 Climbing Los Angeles Center
06:56PM 34.5014 -118.2797 41° Northeast 297 342 21,500 2,032 Climbing Los Angeles Center
06:57PM 34.5544 -118.1886 55° Northeast 329 379 23,600 2,177 Climbing Los Angeles Center
06:58PM 34.6181 -118.0861 53° Northeast 344 396 26,000 2,129 Climbing Los Angeles Center
06:59PM 34.6439 -117.9733 74° East 351 404 28,000 1,689 Climbing Los Angeles Center
07:00PM 34.6536 -117.8542 84° East 357 411 29,800 1,378 Climbing Los Angeles Center
07:01PM 34.6847 -117.6783 78° East 386 444 31,100 1,500 Climbing Los Angeles Center
07:02PM 34.7186 -117.5475 72° East 408 470 32,900 1,597 Climbing Los Angeles Center
07:03PM 34.7517 -117.4164 73° East 410 472 34,400 1,016 Climbing Los Angeles Center
07:04PM 34.7856 -117.2800 73° East 424 488 35,000 293 Climbing Los Angeles Center
07:05PM 34.8231 -117.1342 73° East 452 520 35,000  Level Los Angeles Center
07:06PM 34.8528 -117.0156 73° East 462 532 35,000  Level Los Angeles Center
07:07PM 34.9047 -116.8064 73° East 462 532 35,000  Level Los Angeles Center
07:08PM 34.9419 -116.6578 73° East 459 528 35,000  Level Los Angeles Center
07:10PM 35.0050 -116.5219 60° Northeast 461 531 35,000  Level Los Angeles Center
07:11PM 35.1125 -116.3875 46° Northeast 463 533 35,000  Level Los Angeles Center
07:12PM 35.2028 -116.2756 45° Northeast 463 533 35,000  Level Los Angeles Center
07:13PM 35.3078 -116.1417 46° Northeast 456 525 35,000  Level Los Angeles Center
07:14PM 35.4147 -116.0061 46° Northeast 460 529 35,000  Level Los Angeles Center
07:15PM 35.5053 -115.8961 45° Northeast 459 528 35,000  Level Los Angeles Center
07:16PM 35.5839 -115.7953 46° Northeast 452 520 35,000  Level Los Angeles Center
07:17PM 35.6883 -115.6619 46° Northeast 451 519 35,000  Level Los Angeles Center
07:18PM 35.7739 -115.5517 46° Northeast 447 514 35,000  Level Los Angeles Center
07:19PM 35.8600 -115.4411 46° Northeast 447 514 35,000  Level Los Angeles Center
07:20PM 35.9464 -115.3308 46° Northeast 450 518 35,000  Level Los Angeles Center
07:21PM 36.0319 -115.2217 46° Northeast 448 516 35,000  Level Los Angeles Center
07:22PM 36.1336 -115.0892 46° Northeast 446 513 35,000  Level Los Angeles Center
07:23PM 36.2194 -114.9811 45° Northeast 444 511 35,000  Level Los Angeles Center
07:24PM 36.3056 -114.8717 46° Northeast 446 513 35,000  Level Los Angeles Center
07:25PM 36.3917 -114.7622 46° Northeast 446 513 35,000  Level Los Angeles Center
07:26PM 36.4767 -114.6492 47° Northeast 449 517 35,000  Level Los Angeles Center
07:27PM 36.5628 -114.5394 46° Northeast 446 513 35,000  Level Los Angeles Center
07:28PM 36.6642 -114.4053 47° Northeast 444 511 35,000  Level Los Angeles Center
07:29PM 36.7675 -114.2728 46° Northeast 446 513 35,000 -339 Level Los Angeles Center
07:31PM 36.8731 -114.1908 32° Northeast 446 513 34,300 -838 Descending Los Angeles Center
07:32PM 36.9789 -114.1089 32° Northeast 446 513 33,100 -574 Descending Los Angeles Center
07:33PM 37.1069 -114.0106 31° Northeast 451 519 33,000 -44 Descending Los Angeles Center
07:34PM 37.2119 -113.9283 32° Northeast 448 516 33,000 44 Level Los Angeles Center
07:35PM 37.3450 -113.8244 32° Northeast 457 526 33,100  Climbing Los Angeles Center
07:36PM 37.4503 -113.7419 32° Northeast 450 518 33,000 -49 Descending Los Angeles Center
07:37PM 37.5756 -113.6442 32° Northeast 442 509 33,000  Level Los Angeles Center
07:38PM 37.6800 -113.5625 32° Northeast 439 505 33,000  Level Los Angeles Center
07:39PM 37.7825 -113.4803 32° Northeast 435 501 33,000  Level Los Angeles Center
07:40PM 37.8861 -113.3978 32° Northeast 437 503 33,000  Level Los Angeles Center
07:41PM 37.9889 -113.3161 32° Northeast 434 499 33,000  Level Los Angeles Center
07:42PM 38.0911 -113.2333 33° Northeast 433 498 33,000  Level Los Angeles Center
07:43PM 38.1733 -113.1683 32° Northeast 432 497 33,000 -653 Level Los Angeles Center
07:45PM 38.3331 -113.0372 33° Northeast 426 490 31,400 -811 Descending Salt Lake Center
07:46PM 38.4436 -112.9692 26° Northeast 437 503 31,000 -194 Descending Salt Lake Center
07:47PM 38.5814 -112.8992 22° Northeast 442 509 31,000 -341 Level Salt Lake Center
07:48PM 38.6964 -112.8372 23° Northeast 445 512 30,300 -1,073 Descending Salt Lake Center
07:49PM 38.8078 -112.7753 23° Northeast 439 505 28,800 -1,452 Descending Salt Lake Center
07:50PM 38.9214 -112.7147 23° Northeast 441 507 27,300 -1,452 Descending Salt Lake Center
07:51PM 39.0339 -112.6522 23° Northeast 440 506 25,800 -1,452 Descending Salt Lake Center
07:52PM 39.1458 -112.5914 23° Northeast 437 503 24,300 -1,512 Descending Salt Lake Center
07:53PM 39.2628 -112.5303 22° Northeast 432 497 22,700 -1,512 Descending Salt Lake Center
07:54PM 39.3708 -112.4708 23° Northeast 425 489 21,200 -1,452 Descending Salt Lake Center
07:55PM 39.4756 -112.4081 25° Northeast 414 476 19,700 -1,597 Descending Salt Lake Center
07:56PM 39.5992 -112.3364 24° Northeast 406 467 17,900 -1,561 Descending Salt Lake Center
07:57PM 39.7017 -112.2772 24° Northeast 404 465 16,500 -1,268 Descending Salt Lake Center
07:58PM 39.8025 -112.2192 24° Northeast 398 458 15,300 -726 Descending Salt Lake Center
07:59PM 39.9006 -112.1611 24° Northeast 381 438 15,000 -288 Descending Salt Lake Center
08:00PM 39.9961 -112.1056 24° Northeast 379 436 14,700 -726 Descending Salt Lake Center
08:01PM 40.0936 -112.0458 25° Northeast 391 450 13,500 -1,317 Descending Salt Lake Center
08:02PM 40.2147 -111.9878 20° North 380 437 12,000 -1,210 Descending Salt Lake Center
08:03PM 40.3039 -111.9625 12° North 327 376 11,000 -484 Descending Salt Lake Center
08:04PM 40.3811 -111.9364 14° North 288 331 11,000 -387 Level Salt Lake Center
08:05PM 40.4608 -111.9264 North 290 334 10,200 -878 Descending Salt Lake Center
08:06PM 40.5347 -111.9347 355° North 259 298 9,200 -909 Descending Salt Lake Center
08:08PM 40.6086 -111.9475 353° North 190 219 8,200 -1,016 Descending Salt Lake Center
08:08PM 40.6392 -111.9461 North 140 161 7,100 -1,200 Descending Salt Lake Center
08:09PM 40.6850 -111.9511 355° North 138 159 5,900 -930 Descending Salt Lake Center
08:11PM 40.7231 -111.9597 350° North 132 152 5,100 -634 Descending Salt Lake Center
08:11PM 40.7561 -111.9628 356° North 126 145 4,600 -407 Descending Salt Lake Center
08:13PM 40.7908 -111.9619 North 125 144 4,300 -290 Descending Salt Lake Center